Tracking 25648 objects as of 16-May-2022
HD Live streaming from Space Station
objects crossing your sky now

FLOCK 4X 12

Track FLOCK 4X 12 now!
10-day predictions


NORAD ID: 51015
Int'l Code: 2022-002AH
Perigee: 519.6 km
Apogee: 538.5 km
Inclination: 97.5 °
Period: 95.1 minutes
Semi major axis: 6900 km
RCS: Unknown
Launch date: January 13, 2022
Source: United States (US)
Launch site: AIR FORCE EASTERN TEST RANGE (AFETR)
aabbcc
Your satellite tracking list
Your tracking list is empty




NASA's NSSDC Master Catalog

Two Line Element Set (TLE):
1 51015U 22002AH  22135.59406659  .00009155  00000-0  49670-3 0  9994
2 51015  97.4901 203.3479 0013725 173.0207 187.1219 15.14700320 18450
Source of the keplerian elements: AFSPC